When you browse on this site, cookies collect data to enhance your experience and personalize the content and advertising you see.
Visit our Privacy Policy to learn more. By continuing to use the site, you agree to this use of cookies and data.
  • In Romania
  • List of Countries
  • For 7 days
  • Water Temperature
  • Satellite Maps
  • Weather Map
  • Weather Widgets
  • user-avatar
    Login

    Hourly Weather Columbus

    Today, 22 May, Wednesday

    Time Temperature Precipitation Wind Pressure Humidity
    00:00 +12°C° 0 mm 4 mps 742 mmHg 65%
    01:00 +11°C° 0 mm 4 mps 741 mmHg 67%
    02:00 +11°C° 0 mm 4 mps 741 mmHg 68%
    03:00 +10°C° 0 mm 4 mps 741 mmHg 70%
    04:00 +11°C° 0 mm 4 mps 741 mmHg 70%
    05:00 +12°C° 0 mm 4 mps 741 mmHg 71%
    06:00 +13°C° 0 mm 4 mps 741 mmHg 71%
    07:00 +17°C° 0 mm 4 mps 741 mmHg 69%
    08:00 +20°C° 0 mm 4 mps 741 mmHg 68%
    09:00 +22°C° 0 mm 4 mps 741 mmHg 67%
    10:00 +26°C° 0 mm 5 mps 741 mmHg 63%
    11:00 +28°C° 0 mm 6 mps 741 mmHg 60%
    12:00 +30°C° 0 mm 7 mps 741 mmHg 56%
    13:00 +29°C° 0.5 mm 6 mps 741 mmHg 61%
    14:00 +28°C° 0.5 mm 5 mps 741 mmHg 65%
    15:00 +27°C° 0.5 mm 5 mps 741 mmHg 70%
    16:00 +27°C° 0.2 mm 4 mps 741 mmHg 73%
    17:00 +26°C° 0.2 mm 4 mps 741 mmHg 76%
    18:00 +26°C° 0.2 mm 3 mps 741 mmHg 79%
    19:00 +25°C° 0 mm 3 mps 741 mmHg 82%
    20:00 +24°C° 0 mm 3 mps 742 mmHg 86%
    21:00 +22°C° 0 mm 3 mps 742 mmHg 89%
    22:00 +22°C° 0 mm 3 mps 742 mmHg 90%
    23:00 +21°C° 0 mm 3 mps 742 mmHg 91%

    Tomorrow, 23 May, Thursday

    Time Temperature Precipitation Wind Pressure Humidity
    00:00 +21°C° 0 mm 3 mps 742 mmHg 92%
    01:00 +21°C° 0 mm 3 mps 742 mmHg 93%
    02:00 +21°C° 0 mm 3 mps 742 mmHg 93%
    03:00 +20°C° 0 mm 3 mps 742 mmHg 93%
    04:00 +21°C° 0.7 mm 3 mps 742 mmHg 92%
    05:00 +21°C° 0.7 mm 3 mps 743 mmHg 92%
    06:00 +21°C° 0.7 mm 4 mps 743 mmHg 91%
    07:00 +22°C° 0 mm 4 mps 743 mmHg 88%
    08:00 +22°C° 0 mm 5 mps 743 mmHg 86%
    09:00 +23°C° 0 mm 6 mps 743 mmHg 83%
    10:00 +26°C° 0 mm 6 mps 743 mmHg 76%
    11:00 +28°C° 0 mm 7 mps 742 mmHg 69%
    12:00 +31°C° 0 mm 8 mps 742 mmHg 62%
    13:00 +31°C° 0.5 mm 8 mps 742 mmHg 63%
    14:00 +30°C° 0.5 mm 7 mps 742 mmHg 64%
    15:00 +30°C° 0.5 mm 7 mps 742 mmHg 65%
    16:00 +29°C° 0.8 mm 6 mps 742 mmHg 69%
    17:00 +28°C° 0.8 mm 5 mps 742 mmHg 73%
    18:00 +27°C° 0.8 mm 5 mps 742 mmHg 77%
    19:00 +25°C° 0 mm 4 mps 742 mmHg 79%
    20:00 +23°C° 0 mm 4 mps 743 mmHg 81%
    21:00 +22°C° 0 mm 3 mps 743 mmHg 83%
    22:00 +20°C° 0 mm 3 mps 743 mmHg 80%
    23:00 +19°C° 0 mm 3 mps 743 mmHg 77%

    Day after tomorrow, 24 May, Friday

    Time Temperature Precipitation Wind Pressure Humidity
    00:00 +18°C° 0 mm 2 mps 743 mmHg 74%
    01:00 +17°C° 0 mm 2 mps 743 mmHg 75%
    02:00 +16°C° 0 mm 2 mps 744 mmHg 77%
    03:00 +15°C° 0 mm 2 mps 744 mmHg 79%
    04:00 +16°C° 0 mm 2 mps 744 mmHg 78%
    05:00 +16°C° 0 mm 2 mps 745 mmHg 77%
    06:00 +17°C° 0 mm 2 mps 745 mmHg 76%
    07:00 +18°C° 0 mm 2 mps 745 mmHg 70%
    08:00 +20°C° 0 mm 2 mps 745 mmHg 63%
    09:00 +22°C° 0 mm 1 mps 746 mmHg 57%
    10:00 +24°C° 0 mm 1 mps 746 mmHg 54%
    11:00 +25°C° 0 mm 1 mps 745 mmHg 51%
    12:00 +27°C° 0 mm 1 mps 745 mmHg 47%
    13:00 +27°C° 0 mm 1 mps 745 mmHg 47%
    14:00 +28°C° 0 mm 1 mps 744 mmHg 47%
    15:00 +28°C° 0 mm 1 mps 744 mmHg 47%
    16:00 +27°C° 0 mm 1 mps 743 mmHg 53%
    17:00 +26°C° 0 mm 1 mps 743 mmHg 58%
    18:00 +26°C° 0 mm 2 mps 743 mmHg 64%
    19:00 +25°C° 0 mm 2 mps 743 mmHg 67%
    20:00 +24°C° 0 mm 2 mps 743 mmHg 69%
    21:00 +23°C° 0 mm 2 mps 743 mmHg 72%
    22:00 +21°C° 0 mm 2 mps 743 mmHg 74%
    23:00 +21°C° 0 mm 2 mps 743 mmHg 76%

    25 May, Saturday

    Time Temperature Precipitation Wind Pressure Humidity
    00:00 +20°C° 0 mm 2 mps 743 mmHg 78%
    01:00 +20°C° 0.3 mm 3 mps 742 mmHg 81%
    02:00 +20°C° 0.3 mm 3 mps 742 mmHg 84%
    03:00 +19°C° 0.3 mm 3 mps 742 mmHg 87%
    04:00 +20°C° 0.7 mm 3 mps 742 mmHg 88%
    05:00 +21°C° 0.7 mm 3 mps 742 mmHg 89%
    06:00 +22°C° 0.7 mm 3 mps 742 mmHg 90%
    07:00 +25°C° 0.2 mm 4 mps 742 mmHg 81%
    08:00 +27°C° 0.2 mm 5 mps 742 mmHg 73%
    09:00 +29°C° 0.2 mm 6 mps 742 mmHg 64%
    10:00 +30°C° 0 mm 6 mps 742 mmHg 60%
    11:00 +32°C° 0 mm 7 mps 741 mmHg 56%
    12:00 +33°C° 0 mm 7 mps 741 mmHg 52%
    13:00 +33°C° 0.1 mm 7 mps 741 mmHg 53%
    14:00 +33°C° 0.1 mm 7 mps 741 mmHg 54%
    15:00 +33°C° 0.1 mm 6 mps 740 mmHg 55%
    16:00 +30°C° 0.2 mm 5 mps 740 mmHg 59%
    17:00 +29°C° 0.2 mm 5 mps 740 mmHg 63%
    18:00 +28°C° 0.2 mm 4 mps 740 mmHg 67%
    19:00 +27°C° 0.5 mm 3 mps 741 mmHg 71%
    20:00 +26°C° 0.5 mm 3 mps 741 mmHg 75%
    21:00 +25°C° 0.5 mm 3 mps 741 mmHg 79%
    22:00 +24°C° 1.2 mm 3 mps 741 mmHg 81%
    23:00 +24°C° 1.2 mm 3 mps 741 mmHg 83%

    26 May, Sunday

    Time Temperature Precipitation Wind Pressure Humidity
    00:00 +23°C° 1.2 mm 2 mps 741 mmHg 85%
    01:00 +22°C° 0.5 mm 3 mps 740 mmHg 87%
    02:00 +22°C° 0.5 mm 3 mps 740 mmHg 89%
    03:00 +21°C° 0.5 mm 3 mps 740 mmHg 91%
    04:00 +22°C° 0.4 mm 4 mps 740 mmHg 90%
    05:00 +22°C° 0.4 mm 4 mps 740 mmHg 88%
    06:00 +23°C° 0.4 mm 5 mps 740 mmHg 87%
    07:00 +25°C° 0.3 mm 5 mps 740 mmHg 82%
    08:00 +27°C° 0.3 mm 6 mps 741 mmHg 76%
    09:00 +28°C° 0.3 mm 7 mps 741 mmHg 71%
    10:00 +29°C° 0.6 mm 7 mps 741 mmHg 68%
    11:00 +30°C° 0.6 mm 7 mps 741 mmHg 66%
    12:00 +30°C° 0.6 mm 7 mps 740 mmHg 63%
    13:00 +29°C° 1.7 mm 6 mps 740 mmHg 67%
    14:00 +28°C° 1.7 mm 6 mps 740 mmHg 71%
    15:00 +27°C° 1.7 mm 5 mps 740 mmHg 74%
    16:00 +26°C° 1.5 mm 4 mps 740 mmHg 77%
    17:00 +25°C° 1.5 mm 3 mps 740 mmHg 79%
    18:00 +24°C° 1.5 mm 2 mps 740 mmHg 81%
    19:00 +24°C° 0.2 mm 2 mps 740 mmHg 84%
    20:00 +23°C° 0.2 mm 2 mps 740 mmHg 86%
    21:00 +21°C° 0.2 mm 2 mps 740 mmHg 89%
    22:00 +21°C° 0 mm 2 mps 740 mmHg 90%
    23:00 +21°C° 0 mm 2 mps 740 mmHg 91%

    27 May, Monday

    Time Temperature Precipitation Wind Pressure Humidity
    00:00 +20°C° 0 mm 2 mps 740 mmHg 92%
    01:00 +20°C° 0 mm 2 mps 740 mmHg 92%
    02:00 +21°C° 0 mm 1 mps 740 mmHg 92%
    03:00 +20°C° 0 mm 1 mps 740 mmHg 93%
    04:00 +21°C° 0 mm 1 mps 740 mmHg 91%
    05:00 +22°C° 0 mm 1 mps 740 mmHg 89%
    06:00 +22°C° 0 mm 1 mps 740 mmHg 88%
    07:00 +23°C° 0 mm 1 mps 740 mmHg 83%
    08:00 +25°C° 0 mm 2 mps 740 mmHg 79%
    09:00 +26°C° 0 mm 2 mps 741 mmHg 74%
    10:00 +27°C° 0.3 mm 2 mps 740 mmHg 71%
    11:00 +28°C° 0.3 mm 3 mps 739 mmHg 67%
    12:00 +29°C° 0.3 mm 3 mps 739 mmHg 64%
    13:00 +29°C° 0.5 mm 3 mps 738 mmHg 64%
    14:00 +29°C° 0.5 mm 4 mps 738 mmHg 65%
    15:00 +29°C° 0.5 mm 5 mps 738 mmHg 65%
    16:00 +28°C° 0.8 mm 4 mps 737 mmHg 68%
    17:00 +27°C° 0.8 mm 4 mps 737 mmHg 72%
    18:00 +26°C° 0.8 mm 4 mps 737 mmHg 75%
    19:00 +25°C° 1.5 mm 4 mps 737 mmHg 78%
    20:00 +25°C° 1.5 mm 4 mps 736 mmHg 82%
    21:00 +23°C° 1.5 mm 4 mps 736 mmHg 85%
    22:00 +23°C° 0.9 mm 4 mps 736 mmHg 86%
    23:00 +23°C° 0.9 mm 4 mps 736 mmHg 87%
    Show more